Tracking 35275 objects as of 9-Sep-2026
HD Live streaming from Space Station
objects crossing your sky now

IRIDIUM 178

Track IRIDIUM 178 now!
10-day predictions
IRIDIUM 178 is classified as:


NORAD ID: 56729
Int'l Code: 2023-068V
Launch date: May 20, 2023
Source: United States (US)
Launch site: AIR FORCE WESTERN TEST RANGE (AFWTR)
Your satellite tracking list
Your tracking list is empty




NASA's NSSDC Master Catalog

Two Line Element Set (TLE):
1 56729U 23068V   26252.62076460  .00000694  00000-0  88286-4 0  9991
2 56729  86.6612 350.0992 0003318 104.0472 256.1119 14.80034765178853
Source of the keplerian elements: AFSPC